Location: Miles
(41.4492°N, 81.6087°W)
Time: 14:58:44
(UTC+00:00)

Vanguard 1 Rocket - Pass Details

Date: 11 September 2024
Orbit: 650 x 4218 km, 34.3° (Epoch: 07 October)

Event Time Altitude Azimuth Distance (km) Brightness Sun altitude
Rises 15:04:17 0° 281° (W) 7,920 11.8 41.6°
Reaches altitude 10° 15:09:31 10° 278° (W) 7,149 11.7 42.3°
Maximum altitude 15:34:01 54° 210° (SSW) 4,574 11.8 45.5°
Drops below altitude 10° 15:53:44 10° 140° (SE) 5,886 12.5 47.7°
Sets 15:57:33 0° 135° (SE) 6,512 12.4 48.1°
